• In Netherlands
  • List of Countries
  • For 7 days
  • Water Temperature
  • Satellite Maps
  • Weather Map
  • Weather Widgets
  • user-avatar
    Login

    Hourly Weather Kapan

    Today, 30 April, Sunday

    Time Temperature Precipitation Wind Pressure Humidity
    00:00 +10°C° 0 mm 1 mps 684 mmHg 91%
    01:00 +9°C° 0 mm 1 mps 683 mmHg 91%
    02:00 +9°C° 0 mm 1 mps 683 mmHg 91%
    03:00 +8°C° 0 mm 1 mps 683 mmHg 91%
    04:00 +10°C° 0 mm 1 mps 684 mmHg 86%
    05:00 +11°C° 0 mm 1 mps 684 mmHg 82%
    06:00 +11°C° 0 mm 0 mps 685 mmHg 77%
    07:00 +15°C° 0 mm 1 mps 685 mmHg 66%
    08:00 +18°C° 0 mm 1 mps 685 mmHg 55%
    09:00 +21°C° 0 mm 1 mps 686 mmHg 44%
    10:00 +21°C° 0 mm 2 mps 686 mmHg 40%
    11:00 +23°C° 0 mm 2 mps 686 mmHg 36%
    12:00 +24°C° 0 mm 2 mps 686 mmHg 32%
    13:00 +25°C° 0 mm 2 mps 686 mmHg 32%
    14:00 +25°C° 0 mm 2 mps 685 mmHg 31%
    15:00 +25°C° 0 mm 2 mps 685 mmHg 31%
    16:00 +23°C° 0 mm 2 mps 685 mmHg 38%
    17:00 +21°C° 0 mm 2 mps 684 mmHg 45%
    18:00 +21°C° 0 mm 1 mps 684 mmHg 52%
    19:00 +18°C° 0.1 mm 1 mps 684 mmHg 62%
    20:00 +15°C° 0.1 mm 1 mps 684 mmHg 71%
    21:00 +11°C° 0.1 mm 0 mps 684 mmHg 80%
    22:00 +12°C° 0 mm 1 mps 684 mmHg 79%
    23:00 +12°C° 0 mm 1 mps 684 mmHg 77%

    Tomorrow, 1 May, Monday

    Time Temperature Precipitation Wind Pressure Humidity
    00:00 +12°C° 0 mm 1 mps 684 mmHg 75%
    01:00 +12°C° 0 mm 1 mps 684 mmHg 74%
    02:00 +12°C° 0 mm 1 mps 684 mmHg 73%
    03:00 +12°C° 0 mm 1 mps 684 mmHg 71%
    04:00 +12°C° 0 mm 1 mps 684 mmHg 67%
    05:00 +13°C° 0 mm 1 mps 684 mmHg 64%
    06:00 +14°C° 0 mm 1 mps 685 mmHg 60%
    07:00 +18°C° 0 mm 1 mps 685 mmHg 51%
    08:00 +21°C° 0 mm 1 mps 686 mmHg 41%
    09:00 +24°C° 0 mm 1 mps 686 mmHg 32%
    10:00 +25°C° 0 mm 1 mps 686 mmHg 30%
    11:00 +26°C° 0 mm 2 mps 686 mmHg 27%
    12:00 +27°C° 0 mm 2 mps 686 mmHg 25%
    13:00 +27°C° 0 mm 2 mps 686 mmHg 26%
    14:00 +27°C° 0 mm 3 mps 685 mmHg 27%
    15:00 +27°C° 0 mm 3 mps 685 mmHg 28%
    16:00 +25°C° 0 mm 2 mps 685 mmHg 37%
    17:00 +24°C° 0 mm 2 mps 684 mmHg 45%
    18:00 +21°C° 0 mm 2 mps 684 mmHg 54%
    19:00 +20°C° 0.1 mm 1 mps 684 mmHg 64%
    20:00 +18°C° 0.1 mm 1 mps 684 mmHg 74%
    21:00 +15°C° 0.1 mm 1 mps 684 mmHg 84%
    22:00 +15°C° 0.1 mm 1 mps 684 mmHg 81%
    23:00 +16°C° 0.1 mm 1 mps 684 mmHg 78%

    Day after tomorrow, 2 May, Tuesday

    Time Temperature Precipitation Wind Pressure Humidity
    00:00 +16°C° 0.1 mm 1 mps 685 mmHg 75%
    01:00 +15°C° 0.1 mm 1 mps 684 mmHg 76%
    02:00 +15°C° 0.1 mm 1 mps 684 mmHg 76%
    03:00 +15°C° 0.1 mm 1 mps 684 mmHg 76%
    04:00 +15°C° 0 mm 1 mps 684 mmHg 73%
    05:00 +16°C° 0 mm 1 mps 684 mmHg 71%
    06:00 +16°C° 0 mm 1 mps 685 mmHg 68%
    07:00 +19°C° 0 mm 1 mps 685 mmHg 60%
    08:00 +21°C° 0 mm 1 mps 685 mmHg 52%
    09:00 +23°C° 0 mm 1 mps 686 mmHg 43%
    10:00 +24°C° 0 mm 2 mps 686 mmHg 41%
    11:00 +25°C° 0 mm 2 mps 686 mmHg 38%
    12:00 +26°C° 0 mm 2 mps 685 mmHg 36%
    13:00 +26°C° 0.2 mm 2 mps 685 mmHg 38%
    14:00 +25°C° 0.2 mm 2 mps 685 mmHg 39%
    15:00 +25°C° 0.2 mm 2 mps 684 mmHg 41%
    16:00 +24°C° 0.2 mm 2 mps 684 mmHg 47%
    17:00 +23°C° 0.2 mm 2 mps 684 mmHg 53%
    18:00 +20°C° 0.2 mm 2 mps 683 mmHg 58%
    19:00 +19°C° 0.3 mm 2 mps 684 mmHg 64%
    20:00 +19°C° 0.3 mm 1 mps 684 mmHg 70%
    21:00 +16°C° 0.3 mm 1 mps 684 mmHg 77%
    22:00 +16°C° 0.8 mm 1 mps 684 mmHg 79%
    23:00 +16°C° 0.8 mm 1 mps 683 mmHg 82%

    3 May, Wednesday

    Time Temperature Precipitation Wind Pressure Humidity
    00:00 +15°C° 0.8 mm 1 mps 683 mmHg 84%
    01:00 +15°C° 0.1 mm 1 mps 683 mmHg 85%
    02:00 +14°C° 0.1 mm 1 mps 682 mmHg 87%
    03:00 +14°C° 0.1 mm 1 mps 682 mmHg 88%
    04:00 +14°C° 0 mm 1 mps 682 mmHg 85%
    05:00 +15°C° 0 mm 1 mps 683 mmHg 82%
    06:00 +15°C° 0 mm 1 mps 683 mmHg 79%
    07:00 +19°C° 0 mm 1 mps 683 mmHg 69%
    08:00 +21°C° 0 mm 1 mps 683 mmHg 58%
    09:00 +23°C° 0 mm 1 mps 684 mmHg 48%
    10:00 +24°C° 0.1 mm 2 mps 684 mmHg 43%
    11:00 +25°C° 0.1 mm 2 mps 683 mmHg 39%
    12:00 +27°C° 0.1 mm 3 mps 683 mmHg 35%
    13:00 +27°C° 0.3 mm 3 mps 683 mmHg 34%
    14:00 +27°C° 0.3 mm 3 mps 683 mmHg 34%
    15:00 +27°C° 0.3 mm 3 mps 682 mmHg 33%
    16:00 +25°C° 0.3 mm 2 mps 682 mmHg 40%
    17:00 +24°C° 0.3 mm 2 mps 682 mmHg 47%
    18:00 +22°C° 0.3 mm 1 mps 682 mmHg 54%
    19:00 +20°C° 0.2 mm 1 mps 682 mmHg 62%
    20:00 +18°C° 0.2 mm 1 mps 682 mmHg 70%
    21:00 +15°C° 0.2 mm 1 mps 682 mmHg 78%
    22:00 +15°C° 0 mm 1 mps 682 mmHg 77%
    23:00 +14°C° 0 mm 1 mps 681 mmHg 76%

    4 May, Thursday

    Time Temperature Precipitation Wind Pressure Humidity
    00:00 +14°C° 0 mm 1 mps 681 mmHg 76%
    01:00 +14°C° 0 mm 1 mps 681 mmHg 74%
    02:00 +13°C° 0 mm 1 mps 681 mmHg 72%
    03:00 +13°C° 0 mm 1 mps 681 mmHg 71%
    04:00 +14°C° 0 mm 1 mps 681 mmHg 67%
    05:00 +14°C° 0 mm 1 mps 681 mmHg 64%
    06:00 +15°C° 0 mm 1 mps 682 mmHg 61%
    07:00 +18°C° 0 mm 1 mps 682 mmHg 52%
    08:00 +21°C° 0 mm 1 mps 683 mmHg 44%
    09:00 +23°C° 0 mm 1 mps 683 mmHg 35%
    10:00 +24°C° 0 mm 1 mps 683 mmHg 33%
    11:00 +25°C° 0 mm 2 mps 683 mmHg 31%
    12:00 +26°C° 0 mm 2 mps 683 mmHg 30%
    13:00 +26°C° 0.1 mm 2 mps 682 mmHg 31%
    14:00 +26°C° 0.1 mm 2 mps 682 mmHg 32%
    15:00 +26°C° 0.1 mm 2 mps 682 mmHg 33%
    16:00 +24°C° 0.1 mm 2 mps 682 mmHg 38%
    17:00 +23°C° 0.1 mm 2 mps 682 mmHg 44%
    18:00 +22°C° 0.1 mm 1 mps 682 mmHg 50%
    19:00 +19°C° 0.1 mm 1 mps 682 mmHg 60%
    20:00 +16°C° 0.1 mm 1 mps 682 mmHg 70%
    21:00 +12°C° 0.1 mm 0 mps 682 mmHg 81%
    22:00 +14°C° 0 mm 1 mps 682 mmHg 78%
    23:00 +14°C° 0 mm 1 mps 682 mmHg 76%

    5 May, Friday

    Time Temperature Precipitation Wind Pressure Humidity
    00:00 +14°C° 0 mm 1 mps 682 mmHg 74%
    01:00 +13°C° 0 mm 1 mps 682 mmHg 73%
    02:00 +13°C° 0 mm 1 mps 682 mmHg 73%
    03:00 +13°C° 0 mm 1 mps 682 mmHg 73%
    04:00 +14°C° 0 mm 1 mps 682 mmHg 70%
    05:00 +14°C° 0 mm 1 mps 683 mmHg 67%
    06:00 +15°C° 0 mm 1 mps 683 mmHg 64%
    07:00 +18°C° 0 mm 1 mps 684 mmHg 56%
    08:00 +21°C° 0 mm 1 mps 684 mmHg 48%
    09:00 +23°C° 0 mm 1 mps 684 mmHg 41%
    10:00 +24°C° 0 mm 1 mps 684 mmHg 39%
    11:00 +25°C° 0 mm 2 mps 684 mmHg 37%
    12:00 +26°C° 0 mm 2 mps 683 mmHg 35%
    13:00 +26°C° 0.1 mm 2 mps 683 mmHg 37%
    14:00 +26°C° 0.1 mm 2 mps 682 mmHg 38%
    15:00 +25°C° 0.1 mm 2 mps 682 mmHg 40%
    16:00 +24°C° 0.2 mm 2 mps 681 mmHg 47%
    17:00 +23°C° 0.2 mm 1 mps 681 mmHg 54%
    18:00 +21°C° 0.2 mm 1 mps 681 mmHg 61%
    19:00 +20°C° 0.3 mm 1 mps 681 mmHg 68%
    20:00 +18°C° 0.3 mm 1 mps 681 mmHg 75%
    21:00 +15°C° 0.3 mm 0 mps 681 mmHg 81%
    22:00 +14°C° 0.1 mm 0 mps 681 mmHg 81%
    23:00 +14°C° 0.1 mm 0 mps 681 mmHg 81%
    Show more